Previsão horária em Bolshie Karkaly

Hoje, 27 Fevereiro, Sábado

Tempo Temperatura Precipitação Vento Pressão Humidade
00:00 -25°C° 0 mm 7 m/s 728 mmHg 93%
01:00 -26°C° 0 mm 8 m/s 727 mmHg 93%
02:00 -24°C° 0.2 mm 8 m/s 726 mmHg 93%
03:00 -25°C° 0.2 mm 9 m/s 725 mmHg 93%
04:00 -24°C° 0.2 mm 9 m/s 724 mmHg 94%
05:00 -24°C° 1.2 mm 10 m/s 723 mmHg 94%
06:00 -23°C° 1.2 mm 10 m/s 722 mmHg 93%
07:00 -23°C° 1.2 mm 10 m/s 721 mmHg 93%
08:00 -22°C° 0.3 mm 10 m/s 721 mmHg 93%
09:00 -21°C° 0.3 mm 9 m/s 720 mmHg 93%
10:00 -20°C° 0.3 mm 9 m/s 720 mmHg 92%
11:00 -18°C° 0.2 mm 8 m/s 720 mmHg 92%
12:00 -16°C° 0.2 mm 8 m/s 719 mmHg 93%
13:00 -14°C° 0.2 mm 7 m/s 719 mmHg 93%
14:00 -13°C° 0.2 mm 7 m/s 719 mmHg 93%
15:00 -11°C° 0.2 mm 6 m/s 718 mmHg 94%
16:00 -10°C° 0.2 mm 5 m/s 718 mmHg 94%
17:00 -8°C° 0.2 mm 5 m/s 718 mmHg 95%
18:00 -8°C° 0.2 mm 4 m/s 718 mmHg 95%
19:00 -7°C° 0.2 mm 3 m/s 718 mmHg 96%
20:00 -6°C° 0.2 mm 3 m/s 718 mmHg 96%
21:00 -6°C° 0.2 mm 3 m/s 718 mmHg 96%
22:00 -5°C° 0.2 mm 3 m/s 718 mmHg 97%
23:00 -5°C° 0.2 mm 3 m/s 717 mmHg 97%

Amanhã, 28 Fevereiro, Domingo

Tempo Temperatura Precipitação Vento Pressão Humidade
00:00 -5°C° 0.2 mm 3 m/s 717 mmHg 97%
01:00 -5°C° 0.2 mm 3 m/s 717 mmHg 97%
02:00 -5°C° 0.3 mm 3 m/s 716 mmHg 97%
03:00 -4°C° 0.3 mm 2 m/s 716 mmHg 97%
04:00 -4°C° 0.3 mm 2 m/s 716 mmHg 97%
05:00 -4°C° 0.3 mm 2 m/s 716 mmHg 97%
06:00 -4°C° 0.3 mm 2 m/s 716 mmHg 97%
07:00 -4°C° 0.3 mm 2 m/s 716 mmHg 97%
08:00 -4°C° 0.2 mm 2 m/s 717 mmHg 97%
09:00 -4°C° 0.2 mm 2 m/s 717 mmHg 96%
10:00 -3°C° 0.2 mm 2 m/s 717 mmHg 96%
11:00 -5°C° 0.1 mm 3 m/s 717 mmHg 96%
12:00 -6°C° 0.1 mm 3 m/s 718 mmHg 96%
13:00 -8°C° 0.1 mm 4 m/s 718 mmHg 97%
14:00 -9°C° 0.1 mm 4 m/s 719 mmHg 96%
15:00 -10°C° 0.1 mm 4 m/s 719 mmHg 95%
16:00 -11°C° 0.1 mm 4 m/s 720 mmHg 94%
17:00 -14°C° 0 mm 4 m/s 720 mmHg 95%
18:00 -14°C° 0 mm 3 m/s 721 mmHg 95%
19:00 -15°C° 0 mm 3 m/s 721 mmHg 96%
20:00 -16°C° 0.1 mm 3 m/s 722 mmHg 96%
21:00 -15°C° 0.1 mm 2 m/s 722 mmHg 96%
22:00 -16°C° 0.1 mm 2 m/s 723 mmHg 95%
23:00 -16°C° 0.1 mm 2 m/s 723 mmHg 96%

Depois de amanhã, 1 Março, Segunda-feira

Tempo Temperatura Precipitação Vento Pressão Humidade
00:00 -15°C° 0.1 mm 1 m/s 724 mmHg 96%
01:00 -15°C° 0.1 mm 1 m/s 724 mmHg 96%
02:00 -15°C° 0.1 mm 1 m/s 725 mmHg 96%
03:00 -16°C° 0.1 mm 1 m/s 725 mmHg 96%
04:00 -16°C° 0.1 mm 1 m/s 726 mmHg 96%
05:00 -16°C° 0.1 mm 1 m/s 726 mmHg 96%
06:00 -16°C° 0.1 mm 1 m/s 726 mmHg 96%
07:00 -16°C° 0.1 mm 1 m/s 727 mmHg 96%
08:00 -18°C° 0 mm 2 m/s 727 mmHg 95%
09:00 -18°C° 0 mm 2 m/s 728 mmHg 94%
10:00 -17°C° 0 mm 2 m/s 728 mmHg 92%
11:00 -17°C° 0 mm 2 m/s 729 mmHg 92%
12:00 -16°C° 0 mm 2 m/s 729 mmHg 91%
13:00 -16°C° 0 mm 2 m/s 729 mmHg 90%
14:00 -16°C° 0 mm 2 m/s 730 mmHg 91%
15:00 -16°C° 0 mm 2 m/s 730 mmHg 92%
16:00 -16°C° 0 mm 2 m/s 730 mmHg 93%
17:00 -18°C° 0 mm 2 m/s 730 mmHg 95%
18:00 -20°C° 0 mm 2 m/s 730 mmHg 97%
19:00 -23°C° 0 mm 2 m/s 730 mmHg 98%
20:00 -20°C° 0 mm 1 m/s 730 mmHg 99%
21:00 -21°C° 0 mm 1 m/s 731 mmHg 99%
22:00 -22°C° 0 mm 1 m/s 731 mmHg 99%
23:00 -23°C° 0 mm 1 m/s 731 mmHg 99%

2 Março, Terça-feira

Tempo Temperatura Precipitação Vento Pressão Humidade
00:00 -23°C° 0 mm 1 m/s 730 mmHg 99%
01:00 -23°C° 0 mm 1 m/s 730 mmHg 99%
02:00 -24°C° 0 mm 1 m/s 730 mmHg 99%
03:00 -24°C° 0 mm 1 m/s 730 mmHg 99%
04:00 -24°C° 0 mm 1 m/s 730 mmHg 99%
05:00 -24°C° 0 mm 1 m/s 730 mmHg 99%
06:00 -27°C° 0 mm 2 m/s 730 mmHg 98%
07:00 -27°C° 0 mm 2 m/s 730 mmHg 98%
08:00 -26°C° 0 mm 2 m/s 730 mmHg 97%
09:00 -25°C° 0 mm 3 m/s 729 mmHg 96%
10:00 -24°C° 0 mm 3 m/s 729 mmHg 95%
11:00 -24°C° 0 mm 4 m/s 729 mmHg 95%
12:00 -23°C° 0 mm 4 m/s 728 mmHg 94%
13:00 -22°C° 0 mm 5 m/s 728 mmHg 93%
14:00 -22°C° 0 mm 5 m/s 728 mmHg 93%
15:00 -22°C° 0 mm 6 m/s 727 mmHg 92%
16:00 -22°C° 0 mm 6 m/s 727 mmHg 92%
17:00 -23°C° 0 mm 7 m/s 726 mmHg 93%
18:00 -23°C° 0 mm 7 m/s 726 mmHg 93%
19:00 -24°C° 0 mm 7 m/s 725 mmHg 93%
20:00 -23°C° 0.1 mm 7 m/s 725 mmHg 93%
21:00 -23°C° 0.1 mm 7 m/s 725 mmHg 93%
22:00 -23°C° 0.1 mm 7 m/s 724 mmHg 92%
23:00 -21°C° 0.1 mm 7 m/s 724 mmHg 92%

3 Março, Quarta-feira

Tempo Temperatura Precipitação Vento Pressão Humidade
00:00 -21°C° 0.1 mm 7 m/s 723 mmHg 93%
01:00 -21°C° 0.1 mm 7 m/s 722 mmHg 93%
02:00 -20°C° 0.1 mm 7 m/s 722 mmHg 93%
03:00 -19°C° 0.1 mm 7 m/s 721 mmHg 92%
04:00 -18°C° 0.1 mm 7 m/s 721 mmHg 92%
05:00 -15°C° 0.1 mm 7 m/s 720 mmHg 92%
06:00 -14°C° 0.1 mm 7 m/s 720 mmHg 92%
07:00 -12°C° 0.1 mm 7 m/s 719 mmHg 92%
08:00 -10°C° 0.1 mm 6 m/s 719 mmHg 93%
09:00 -9°C° 0.1 mm 6 m/s 719 mmHg 93%
10:00 -6°C° 0.1 mm 6 m/s 719 mmHg 94%
11:00 -6°C° 0.2 mm 6 m/s 719 mmHg 94%
12:00 -5°C° 0.2 mm 5 m/s 718 mmHg 94%
13:00 -5°C° 0.2 mm 5 m/s 718 mmHg 94%
14:00 -5°C° 0.2 mm 5 m/s 718 mmHg 94%
15:00 -4°C° 0.2 mm 4 m/s 718 mmHg 94%
16:00 -4°C° 0.2 mm 4 m/s 718 mmHg 94%
17:00 -5°C° 0.1 mm 3 m/s 718 mmHg 95%
18:00 -6°C° 0.1 mm 3 m/s 718 mmHg 96%
19:00 -7°C° 0.1 mm 3 m/s 718 mmHg 96%
20:00 -7°C° 0.1 mm 3 m/s 718 mmHg 96%
21:00 -8°C° 0.1 mm 3 m/s 718 mmHg 96%
22:00 -9°C° 0.1 mm 3 m/s 719 mmHg 95%
23:00 -11°C° 0.2 mm 4 m/s 719 mmHg 95%

4 Março, Quinta-feira

Tempo Temperatura Precipitação Vento Pressão Humidade
00:00 -12°C° 0.2 mm 4 m/s 719 mmHg 94%
01:00 -14°C° 0.2 mm 5 m/s 719 mmHg 94%
02:00 -14°C° 0.1 mm 5 m/s 719 mmHg 93%
03:00 -14°C° 0.1 mm 5 m/s 720 mmHg 93%
04:00 -14°C° 0.1 mm 5 m/s 720 mmHg 93%
05:00 -15°C° 0.1 mm 4 m/s 721 mmHg 93%
06:00 -15°C° 0.1 mm 4 m/s 721 mmHg 94%
07:00 -15°C° 0.1 mm 4 m/s 722 mmHg 94%
08:00 -15°C° 0 mm 4 m/s 723 mmHg 94%
09:00 -14°C° 0 mm 4 m/s 723 mmHg 93%
10:00 -14°C° 0 mm 4 m/s 724 mmHg 92%
11:00 -12°C° 0 mm 4 m/s 724 mmHg 90%
12:00 -12°C° 0 mm 4 m/s 724 mmHg 88%
13:00 -11°C° 0 mm 4 m/s 725 mmHg 86%
14:00 -11°C° 0 mm 4 m/s 725 mmHg 88%
15:00 -11°C° 0 mm 4 m/s 725 mmHg 90%
16:00 -11°C° 0 mm 4 m/s 725 mmHg 92%
17:00 -14°C° 0 mm 4 m/s 725 mmHg 94%
18:00 -15°C° 0 mm 4 m/s 725 mmHg 96%
19:00 -17°C° 0 mm 4 m/s 725 mmHg 97%
20:00 -16°C° 0 mm 4 m/s 726 mmHg 96%
21:00 -17°C° 0 mm 5 m/s 726 mmHg 96%
22:00 -17°C° 0 mm 5 m/s 726 mmHg 95%
23:00 -17°C° 0 mm 6 m/s 725 mmHg 95%
Mostrar mais